Regional Weather Roundup
Issued by NWS Goodland, KS

Home | Current Version | Previous Version | Graphics & Text | Print | Product List | Glossary On
Versions: 1 2 3 4 5 6 7 8 9 10 11 12 13 14 15 16 17 18 19 20 21 22 23 24 25 26 27 28 29 30 31 32 33 34 35 36 37 38 39 40 41 42 43 44 45 46 47 48 49 50
000
ASUS43 KGLD 310808
RWRGLD

GOODLAND FORECAST AREA HOURLY WEATHER ROUNDUP
NATIONAL WEATHER SERVICE GOODLAND KS
100 AM MST SAT JAN 31 2015

...OFFICIAL OBSERVATIONS...

CITY           SKY/WX    TMP DP  RH WIND       PRES   REMARKS
GOODLAND KS    CLOUDY    34  32  92 S14       30.02F
HILL CITY KS   LGT SNOW  33  32  96 SE7       30.15F FOG
IMPERIAL NEB   CLOUDY    34  32  92 SE9       30.03F
MCCOOK NEB     CLOUDY    35  32  88 S7        30.09F
AKRON CO       CLOUDY    32  31  96 NW9       29.97F
BURLINGTON CO  CLOUDY    34  32  92 SW13      29.99F
LIMON CO       CLOUDY    29  28  96 NW3       29.97F
$$

...UNOFFICIAL OBSERVATIONS...

CITY           SKY/WX    TMP DP  RH WIND       PRES   REMARKS
GOVE KS          N/A     34  32  92 MISG        N/A
SHARON SPRINGS   N/A     33  31  93 S14G22      N/A
KIT CARSON CO    N/A     33  30  90 MISG        N/A
YUMA CO          N/A     34  31  90 SE5         N/A
$$


USA.gov is the U.S. government's official web portal to all federal, state and local government web resources and services.